Regional Weather Roundup
Issued by NWS

Home | Current Version | Previous Version | Graphics & Text | Print | Product List | Glossary On
Versions: 1 2 3 4 5 6 7 8 9 10 11 12 13 14 15 16 17 18 19 20 21 22 23 24 25 26 27 28 29 30 31 32 33 34 35 36 37 38 39 40 41 42 43 44 45 46 47 48 49 50
000
ASUS43 KMKX 221511
RWRWI

WISCONSIN REGIONAL WEATHER ROUNDUP
NATIONAL WEATHER SERVICE MILWAUKEE/SULLIVAN WI
1000 AM CDT TUE JUL 22 2014

NOTE: "FAIR" INDICATES FEW OR NO CLOUDS BELOW 12,000 FEET WITH NO
SIGNIFICANT WEATHER AND/OR OBSTRUCTIONS TO VISIBILITY.

WIZ001-002-006>008-014>016-023>028-221600-
NORTHWEST WISCONSIN

CITY           SKY/WX    TMP DP  RH WIND       PRES   REMARKS
SUPERIOR ARPT  CLOUDY    73  65  74 W18G24    29.89R
ASHLAND        CLOUDY    73  65  75 W13G25    29.86R
HAYWARD        PTSUNNY   74  65  73 VRB7G21   29.92
SIREN          CLOUDY    74  63  69 N14       29.94R
RICE LAKE      CLOUDY    74  63  68 W10G21    29.94R
LADYSMITH      PTSUNNY   75  65  70 W14G21    29.93R
EAU CLAIRE     SUNNY     80  66  62 NW14      29.90R HX  82
MENOMONIE      SUNNY     78  65  63 W13       29.91F HX  80
NEW RICHMOND   SUNNY     74  64  69 N14G20    29.92F
OSCEOLA        MOSUNNY   75  65  71 NW15      29.95F
$$

WIZ003>005-009-010-017-018-221600-
NORTH CENTRAL WISCONSIN

CITY           SKY/WX    TMP DP  RH WIND       PRES   REMARKS
WOODRUFF       PTSUNNY   80  67  65 NW16G30   29.87R HX  82
RHINELANDER    PTSUNNY   79  71  76 W14G26    29.86R HX  82
EAGLE RIVER    PTSUNNY   78  68  71 W15G29    29.82R HX  80
LAND O LAKES   PTSUNNY   77  64  65 W17G28    29.84R
PHILLIPS       PTSUNNY   73  65  74 W9        29.90R
TOMAHAWK       MOSUNNY   79  70  73 W9G16     29.87S HX  82
MEDFORD        PTSUNNY   80  73  80 W15G24    29.89S HX  83
MERRILL        CLOUDY    80  74  83 W13G18    29.86S HX  84
$$

WIZ029-030-035-036-043>047-221600-
CENTRAL WISCONSIN

CITY           SKY/WX    TMP DP  RH WIND       PRES   REMARKS
WAUSAU         CLOUDY    79  72  79 SW13      29.86F HX  82
MOSINEE        CLOUDY    77  73  88 SW9G16    29.89F
MARSHFIELD     PTSUNNY   80  73  79 W12G21    29.89S HX  84
STEVENS POINT  CLOUDY    77  69  76 SW13G21   29.89F
WAUPACA        CLOUDY    82  70  68 SW10      29.89S HX  85
WAUTOMA        CLOUDY    82  72  72 SW10      29.91S HX  86
WISC RAPIDS    CLOUDY    82  71  69 SW13G18   29.91S HX  86
CAMP DOUGLAS   PTSUNNY   79  75  89 SW12      29.92R HX  82
$$

WIZ011>013-019>022-031-037>040-048>050-221600-
NORTHEAST WISCONSIN

CITY           SKY/WX    TMP DP  RH WIND       PRES   REMARKS
ANTIGO         CLOUDY    76  71  84 W15G22    29.88S
STURGEON BAY   MOSUNNY   73  64  73 S9        29.87F
GREEN BAY      MOSUNNY   79  70  74 SW14      29.88F HX  82
MANITOWOC      PTSUNNY   79  69  71 S10       29.90F HX  81
APPLETON       CLOUDY    79  66  65 SW15G21   29.90S HX  81
CLINTONVILLE   CLOUDY    79  68  69 SW10G16   29.87F HX  81
OSHKOSH        CLOUDY    79  69  71 SW15G25   29.90S HX  81
$$

WIZ032>034-041-042-053>061-221600-
SOUTHWEST WISCONSIN

CITY           SKY/WX    TMP DP  RH WIND       PRES   REMARKS
LA CROSSE      PTSUNNY   85  73  67 W8        29.89F HX  91
SPARTA         PTSUNNY   81  70  71 W8        29.91F HX  84
VIROQUA        CLOUDY    79  73  81 SW6       29.95S HX  82
BOSCOBEL       CLOUDY    82  72  71 SW9       29.94R HX  87
PRAIRIE DU CHI CLOUDY    81  71  71 SW6       29.93F HX  84
PLATTEVILLE    FAIR      82  73  75 SW13      29.99R HX  87
$$

WIZ056-057-062-063-064-067-068-221600-
SOUTH CENTRAL WISCONSIN

CITY           SKY/WX    TMP DP  RH WIND       PRES   REMARKS
BARABOO/DELLS  CLOUDY    80  68  66 W10       29.93S HX  83
LONE ROCK      CLOUDY    84  72  67 W6        29.94R HX  89
WATERTOWN      CLOUDY    79  69  72 SW17      29.94S HX  81
MADISON        MOSUNNY   82  69  64 SW10G18   29.94R HX  85
MIDDLETON      FAIR      83  68  61 SW12G18   29.95S HX  86
MONROE         MOSUNNY   79  70  73 SW21      29.97S HX  81
JANESVILLE     PTSUNNY   82  66  57 MISG        N/A  HX  85
$$

WIZ051-052-058>065-066-070>072-221600-
SOUTHEAST WISCONSIN

CITY           SKY/WX    TMP DP  RH WIND       PRES   REMARKS
MILWAUKEE      PTSUNNY   81  67  62 SW16      29.96F HX  83
WAUKESHA       MOSUNNY   77  66  69 S12       29.98S
MILWAUKEE/TIMM MOSUNNY   79  64  61 S12G17    29.96F HX  81
RACINE         PTSUNNY   81  68  64 SW10      29.98F HX  84
BURLINGTON     PTSUNNY   76  68  74 SW10G17   29.98S
KENOSHA        PTSUNNY   79  68  69 SW14G21   29.98F HX  81
FOND DU LAC    MOSUNNY   81  68  64 SW17G25   29.93R HX  84
SHEBOYGAN      SUNNY     81  68  64 SW17G28   29.92F HX  84
WEST BEND      PTSUNNY   79  64  61 SW14G22   29.95R HX  81
JUNEAU         PTSUNNY   78  54  43 SW13      29.95S
$$

LSZ147-162-221600-
LAKE SUPERIOR

STATION/POSITION TIME  TEMP    WIND        PRES    WAVE
                       AIR SEA DIR/SP/G            HT/PER
                 (UTC) (F)     (DEG/KT/KT) (MB)    (FT/S)
W MID LAKE BUOY  1450   50 39  250/ 14/ 16 1007.0R   2/ 4
PORT WING        1400   69     260/ 17/ 22 1010.8R
SAXON HARBOR     1400          270/ 11/ 19 1009.5R
$$

LMZ867-665-643>646-221600-
LAKE MICHIGAN

STATION/POSITION TIME  TEMP    WIND        PRES    WAVE
                       AIR SEA DIR/SP/G            HT/PER
                 (UTC) (F)     (DEG/KT/KT) (MB)    (FT/S)
N MID LAKE BUOY  1450   63 57  200/ 21/ 25 1010.2F   5/ 5
NORTHPORT PIER   1400   69     170/  8/ 17 1011.2S
KEWAUNEE LAKESHO 1400   56     180/ 17/ 19 1013.1F
SHEBOYGAN LAKESH 1500   69     170/ 19/ 20 1013.1F
PORT WASHINGTON  1400   64     180/  9/ 11 1014.6
ATWATER BUOY     1400   59     150/ 10     1015.2F
MILWAUKEE LAKESH 1400   76     210/ 12/ 16   N/A
S MID LAKE BUOY  1450   70 68  190/ 16/ 17 1015.6R   2/ 3
KENOSHA   LAKESH 1400   76     230/  8/ 15   N/A
$$

TC  - TEMPERATURE IN CELSIUS
VSB - VISIBILITY IN STATUTE MILES
WCI - WIND CHILL INDEX
HX  - HEAT INDEX




USA.gov is the U.S. government's official web portal to all federal, state and local government web resources and services.